Weather History for Kerrville, TX

Change the Weather History Date:

Sunday, February 17, 2013

  Actual Average (KHDO) Record (KHDO)
Temperature  
Mean Temperature 47 °F -  
Max Temperature 66 °F 66 °F 86 °F (2014)
Min Temperature 28 °F 43 °F 28 °F (2013)
Degree Days  
Heating Degree Days 18    
Moisture  
Dew Point 35 °F    
Average Humidity 61    
Maximum Humidity 93    
Minimum Humidity 34    
Precipitation  
Precipitation 0.00 in - - ()
Sea Level Pressure  
Sea Level Pressure 30.09 in    
Wind  
Wind Speed 7 mph (South)    
Max Wind Speed 22 mph    
Max Gust Speed 33 mph    
Visibility 10 miles    
Events      
Averages and records for this station are not official NWS values.
T = Trace of Precipitation, MM = Missing Value Source: NWS Daily Summary

Daily Weather History Graph

Daily Weather History Graph

Search for Another Location

Airport:

Trip Planner

Search our weather history database for the weather conditions in past years. The results will help you decide how hot, cold, wet, or windy it might be!

Date:

Astronomy

Feb. 17, 2013 Rise Set
Actual Time 7:14 AM CST 6:26 PM CST
Civil Twilight 6:49 AM CST 6:51 PM CST
Nautical Twilight 6:21 AM CST 7:19 PM CST
Astronomical Twilight 5:53 AM CST 7:47 PM CST
Moon 11:42 AM CST (2/17) 12:50 AM CST (2/17)
Length of Visible Light 12h 01m
Length of Day
11h 12m
Waxing Crescent, 49% of the Moon is Illuminated
Feb 17
Waxing Crescent
Feb 17
First Quarter
Feb 25
Full
Mar 4
Last Quarter
Mar 11
New

Hourly Weather History & Observations

Time (CST) Temp. Windchill Dew Point Humidity Pressure Visibility Wind Dir Wind Speed Gust Speed Precip Events Conditions
12:15 AM 41.0 °F - 26.6 °F 57% 30.22 in 10.0 mi Calm Calm - N/A   Clear
12:35 AM 39.2 °F - 26.6 °F 61% 30.21 in 10.0 mi Calm Calm - N/A   Clear
12:55 AM 39.2 °F - 26.6 °F 61% 30.20 in 10.0 mi Calm Calm - N/A   Clear
1:15 AM 37.4 °F 34.9 °F 26.6 °F 65% 30.20 in 10.0 mi ESE 3.5 mph - N/A   Clear
1:35 AM 35.6 °F - 28.4 °F 75% 30.20 in 10.0 mi Calm Calm - N/A   Clear
1:55 AM 35.6 °F - 28.4 °F 75% 30.20 in 10.0 mi Calm Calm - N/A   Clear
2:15 AM 33.8 °F - 28.4 °F 81% 30.20 in 10.0 mi Calm Calm - N/A   Clear
2:35 AM 33.8 °F - 28.4 °F 81% 30.19 in 10.0 mi Calm Calm - N/A   Clear
2:55 AM 32.0 °F - 26.6 °F 80% 30.18 in 10.0 mi Calm Calm - N/A   Clear
3:15 AM 32.0 °F - 26.6 °F 80% 30.18 in 10.0 mi Calm Calm - N/A   Clear
3:35 AM 32.0 °F 28.7 °F 28.4 °F 87% 30.18 in 10.0 mi NNW 3.5 mph - N/A   Clear
3:55 AM 32.0 °F - 28.4 °F 87% 30.18 in 10.0 mi Calm Calm - N/A   Clear
4:15 AM 32.0 °F 28.7 °F 26.6 °F 80% 30.17 in 10.0 mi NNW 3.5 mph - N/A   Clear
4:35 AM 32.0 °F - 26.6 °F 80% 30.17 in 10.0 mi Calm Calm - N/A   Clear
4:55 AM 32.0 °F 28.7 °F 26.6 °F 80% 30.17 in 10.0 mi NW 3.5 mph - N/A   Clear
5:15 AM 32.0 °F 28.7 °F 28.4 °F 87% 30.16 in 10.0 mi NW 3.5 mph - N/A   Clear
5:55 AM 32.0 °F - 28.4 °F 87% 30.18 in 10.0 mi Calm Calm - N/A   Clear
6:15 AM 32.0 °F - 26.6 °F 80% 30.17 in 10.0 mi Calm Calm - N/A   Clear
6:35 AM 30.2 °F - 24.8 °F 80% 30.17 in 10.0 mi Calm Calm - N/A   Clear
6:55 AM 28.4 °F - 26.6 °F 93% 30.17 in 10.0 mi Calm Calm - N/A   Clear
7:15 AM 30.2 °F - 26.6 °F 86% 30.18 in 10.0 mi Calm Calm - N/A   Clear
7:35 AM 30.2 °F - 26.6 °F 86% 30.18 in 10.0 mi Calm Calm - N/A   Clear
7:55 AM 32.0 °F - 28.4 °F 87% 30.18 in 10.0 mi Calm Calm - N/A   Clear
8:15 AM 32.0 °F - 28.4 °F 87% 30.18 in 10.0 mi Calm Calm - N/A   Clear
8:35 AM 35.6 °F - 30.2 °F 81% 30.18 in 10.0 mi Calm Calm - N/A   Clear
8:55 AM 42.8 °F - 32.0 °F 66% 30.18 in 10.0 mi Calm Calm - N/A   Clear
9:15 AM 50.0 °F - 33.8 °F 54% 30.19 in 10.0 mi SSE 5.8 mph - N/A   Clear
9:35 AM 53.6 °F - 32.0 °F 44% 30.18 in 10.0 mi South 16.1 mph - N/A   Clear
10:15 AM 55.4 °F - 30.2 °F 38% 30.18 in 10.0 mi South 11.5 mph - N/A   Clear
10:35 AM 55.4 °F - 32.0 °F 41% 30.18 in 10.0 mi South 17.3 mph 20.7 mph N/A   Clear
10:55 AM 59.0 °F - 32.0 °F 36% 30.17 in 10.0 mi South 13.8 mph 24.2 mph N/A   Clear
11:15 AM 59.0 °F - 33.8 °F 39% 30.17 in 10.0 mi South 16.1 mph 25.3 mph N/A   Clear
11:35 AM 59.0 °F - 33.8 °F 39% 30.16 in 10.0 mi South 19.6 mph 25.3 mph N/A   Clear
11:55 AM 60.8 °F - 33.8 °F 36% 30.15 in 10.0 mi South 15.0 mph 25.3 mph N/A   Clear
12:15 PM 60.8 °F - 35.6 °F 39% 30.14 in 10.0 mi SSW 15.0 mph 25.3 mph N/A   Clear
12:55 PM 62.6 °F - 35.6 °F 37% 30.10 in 10.0 mi South 16.1 mph 24.2 mph N/A   Clear
1:15 PM 62.6 °F - 35.6 °F 37% 30.08 in 10.0 mi South 15.0 mph 26.5 mph N/A   Clear
1:35 PM 62.6 °F - 35.6 °F 37% 30.06 in 10.0 mi SSW 15.0 mph 26.5 mph N/A   Clear
1:55 PM 64.4 °F - 35.6 °F 34% 30.05 in 10.0 mi SSE 15.0 mph 26.5 mph N/A   Clear
2:15 PM 64.4 °F - 37.4 °F 37% 30.04 in 10.0 mi South 16.1 mph 28.8 mph N/A   Clear
2:35 PM 64.4 °F - 35.6 °F 34% 30.03 in 10.0 mi South 18.4 mph 25.3 mph N/A   Clear
2:55 PM 66.2 °F - 37.4 °F 35% 30.02 in 10.0 mi South 20.7 mph 25.3 mph N/A   Clear
3:15 PM 66.2 °F - 39.2 °F 37% 30.01 in 10.0 mi South 16.1 mph - N/A   Clear
3:35 PM 66.2 °F - 37.4 °F 35% 30.00 in 10.0 mi South 13.8 mph 23.0 mph N/A   Clear
3:55 PM 64.4 °F - 37.4 °F 37% 29.99 in 10.0 mi South 17.3 mph 24.2 mph N/A   Clear
4:15 PM 64.4 °F - 39.2 °F 40% 29.99 in 10.0 mi SSE 17.3 mph 24.2 mph N/A   Clear
4:35 PM 64.4 °F - 39.2 °F 40% 29.98 in 10.0 mi South 18.4 mph 31.1 mph N/A   Clear
4:55 PM 64.4 °F - 41.0 °F 42% 29.98 in 10.0 mi South 17.3 mph 27.6 mph N/A   Clear
5:15 PM 64.4 °F - 41.0 °F 42% 29.98 in 10.0 mi SSE 20.7 mph 26.5 mph N/A   Scattered Clouds
5:35 PM 62.6 °F - 42.8 °F 48% 29.98 in 10.0 mi SSE 21.9 mph 33.4 mph N/A   Scattered Clouds
5:55 PM 62.6 °F - 42.8 °F 48% 29.98 in 10.0 mi South 18.4 mph 29.9 mph N/A   Scattered Clouds
6:15 PM 60.8 °F - 42.8 °F 52% 29.98 in 10.0 mi SSE 15.0 mph 19.6 mph N/A   Scattered Clouds
6:35 PM 60.8 °F - 42.8 °F 52% 29.97 in 10.0 mi South 16.1 mph - N/A   Scattered Clouds
7:15 PM 60.8 °F - 44.6 °F 55% 29.97 in 10.0 mi SSE 15.0 mph 23.0 mph N/A   Mostly Cloudy
7:35 PM 60.8 °F - 44.6 °F 55% 29.98 in 10.0 mi SSE 16.1 mph 24.2 mph N/A   Mostly Cloudy
7:55 PM 59.0 °F - 44.6 °F 59% 29.98 in 10.0 mi SSE 17.3 mph 24.2 mph N/A   Mostly Cloudy
8:15 PM 59.0 °F - 44.6 °F 59% 29.98 in 10.0 mi SSE 20.7 mph 25.3 mph N/A   Mostly Cloudy
8:35 PM 59.0 °F - 46.4 °F 63% 29.99 in 10.0 mi SSE 15.0 mph 25.3 mph N/A   Mostly Cloudy
8:55 PM 55.4 °F - 44.6 °F 67% 29.99 in 10.0 mi SSE 17.3 mph 24.2 mph N/A   Mostly Cloudy
9:15 PM 55.4 °F - 46.4 °F 72% 29.99 in 10.0 mi SSE 17.3 mph - N/A   Mostly Cloudy
9:35 PM 55.4 °F - 46.4 °F 72% 29.99 in 10.0 mi SSE 16.1 mph 23.0 mph N/A   Scattered Clouds
9:55 PM 55.4 °F - 46.4 °F 72% 29.99 in 10.0 mi SSE 17.3 mph - N/A   Scattered Clouds
10:15 PM 55.4 °F - 46.4 °F 72% 29.98 in 10.0 mi SSE 13.8 mph 20.7 mph N/A   Overcast
10:35 PM 55.4 °F - 46.4 °F 72% 29.99 in 10.0 mi SSE 16.1 mph - N/A   Overcast
10:55 PM 55.4 °F - 48.2 °F 77% 29.99 in 10.0 mi SSE 13.8 mph 20.7 mph N/A   Overcast
11:15 PM 55.4 °F - 50.0 °F 82% 29.98 in 10.0 mi SSE 18.4 mph 23.0 mph N/A   Overcast
11:35 PM 55.4 °F - 50.0 °F 82% 29.98 in 10.0 mi SSE 12.7 mph 23.0 mph N/A   Overcast
11:55 PM 55.4 °F - 50.0 °F 82% 29.97 in 10.0 mi SSE 16.1 mph 21.9 mph N/A   Overcast